Weather in Khashuri

Georgia     41°59′50″N   43°35′56″E
temp.,
°C
wind,
m/s
gust,
m/s
humid.,
%
clouds,
%
prec.,
mm/h
press.,
hPa
HPBL,
m
17 october, sun
sun1701:00+11ese11910 0.2 101519
04:00+10se11933 0.6 101523
07:00+10ese21911 0.1 101525
10:00+15ene23710 0.1 1013323
13:00+20ne22500 0.0 1011743
16:00+21nw434724 0.6 10091445
19:00+13wnw249476 3.6 1013338
22:00+12wnw129684 4.1 1015237
18 october, mon
mon1801:00+11w239685 1.0 1015225
04:00+11wsw239389 1.3 1015158
07:00+10w119541 0.0 101546
10:00+11nw1395100 0.7 1016380
13:00+11w2490100 1.1 1016356
16:00+12wnw358496 1.4 1016802
19:00+10w259796 0.8 1017358
22:00+9wsw249898 0.9 1019205
19 october, tue
tue1901:00+10sw1395100 0.4 1018187
04:00+10wsw1398100 2.5 1018148
07:00+9wnw2596100 7.8 1019323
10:00+10sw2389100 11.7 1019258
13:00+9wsw2493100 2.7 1020246
16:00+9w2494100 4.3 1020272
19:00+8w2597100 2.9 1021316
22:00+8w2697100 7.9 1021536
20 october, wed
wed2001:00+8w2698100 6.3 1021488
04:00+7wnw51197100 11.5 10221111
07:00+6w41297100 1.9 1023986
10:00+6wnw3897100 6.1 1024912
13:00+6w41194100 3.9 10251126
16:00+6w31196100 5.4 10241252
19:00+6wnw41095100 1.4 10271078
22:00+5wnw3895100 1.8 10281072
21 october, thu
thu2101:00+5w2693100 0.3 1029602
04:00+4sw229523 0.3 102952
07:00+3ssw11935 0.0 102910
10:00+7ene2278100 0.0 1029386
13:00+10ene33585 0.0 1027829
16:00+11ene34510 0.0 1025692
19:00+6e23720 0.0 102776
22:00+5e25850 0.0 1027101